FW0878 Weather Reports


Display with metric or nautical units.
time (UTC)temp
F
wind
direction
speed
MPH
gust
MPH
rain 1hr
in
rain 24hr
in
rain mn
in
humidity
%
barometer
mb
20260903033306 60 290 6.0 12.0 0.00 0.03 0.03 58 1013.5
20260903032807 60 244 5.0 16.0 0.00 0.03 0.03 60 1013.5
20260903032307 60 290 9.0 16.0 0.00 0.03 0.03 61 1013.4
20260903031807 61 205 6.0 15.0 0.00 0.03 0.03 64 1013.5
20260903031307 64 203 5.0 10.0 0.00 0.03 0.03 61 1013.2
20260903030306 64 229 3.0 8.0 0.00 0.03 0.03 63 1013.0
20260903025806 63 353 2.0 8.0 0.00 0.03 0.03 68 1013.0
20260903025306 62 94 3.0 10.0 0.00 0.03 0.03 70 1013.1
20260903024307 59 271 4.0 10.0 0.00 0.03 0.03 74 1013.3
20260903022809 58 266 3.0 9.0 0.03 0.03 0.03 76 1013.2
20260903022306 57 356 5.0 15.0 0.03 0.03 0.03 77 1013.2
20260903021808 56 294 5.0 10.0 0.03 0.03 0.03 78 1013.3
20260903021306 56 205 4.0 14.0 0.03 0.03 0.03 80 1013.3
20260903020807 55 225 6.0 14.0 0.03 0.03 0.03 81 1013.1
20260903015806 55 293 6.0 16.0 0.03 0.03 0.03 85 1013.4
20260903015307 55 271 6.0 12.0 0.03 0.03 0.03 87 1013.4
20260903014808 55 228 3.0 8.0 0.03 0.03 0.03 89 1013.2
20260903014306 55 290 3.0 8.0 0.03 0.03 0.03 89 1013.0
20260903013308 57 245 4.0 13.0 0.01 0.01 0.01 83 1013.0
20260903012806 61 204 5.0 13.0 0.00 0.00 0.00 72 1013.1
20260903012307 62 249 1.0 7.0 0.00 0.00 0.00 63 1012.6
20260903011806 62 313 3.0 7.0 0.00 0.00 0.00 61 1012.6
20260903011306 62 268 3.0 9.0 0.00 0.00 0.00 61 1012.4
20260903010807 63 359 3.0 17.0 0.00 0.00 0.00 60 1012.5
20260903010307 64 290 3.0 9.0 0.00 0.00 0.00 59 1012.4
20260903005806 65 252 4.0 10.0 0.00 0.00 0.00 57 1012.6
20260903005306 64 161 3.0 7.0 0.00 0.00 0.00 58 1012.5
20260903004806 63 248 2.0 7.0 0.00 0.00 0.00 61 1012.5
20260903004306 61 250 3.0 7.0 0.00 0.00 0.00 62 1012.2
20260903003806 61 69 3.0 7.0 0.00 0.00 0.00 62 1012.4
20260903003308 61 294 2.0 8.0 0.00 0.00 0.00 64 1012.3
20260903002806 60 200 3.0 9.0 0.00 0.00 0.00 65 1012.1
20260903001806 60 312 3.0 10.0 0.00 0.00 0.00 68 1012.1
20260903000806 59 313 3.0 9.0 0.00 0.00 0.00 70 1012.1
20260902235806 59 248 5.0 16.0 0.00 0.00 0.00 69 1012.3
20260902235307 60 271 7.0 13.0 0.00 0.00 0.00 68 1012.3
20260902233307 59 113 2.0 8.0 0.00 0.00 0.00 68 1011.8
20260902232806 59 248 3.0 7.0 0.00 0.00 0.00 68 1011.8
20260902232307 59 226 2.0 7.0 0.00 0.00 0.00 68 1011.7
20260902231807 59 338 1.0 2.0 0.00 0.00 0.00 67 1011.8
20260902230809 58 270 2.0 6.0 0.00 0.00 0.00 67 1011.4
20260902230306 59 339 3.0 6.0 0.00 0.00 0.00 67 1011.4
20260902225806 59 337 1.0 6.0 0.00 0.00 0.00 66 1011.3
20260902225306 59 272 3.0 7.0 0.00 0.00 0.00 66 1011.3
20260902224807 59 314 2.0 7.0 0.00 0.00 0.00 65 1011.1
20260902224306 59 250 1.0 6.0 0.00 0.00 0.00 65 1011.2
20260902223306 61 178 2.0 6.0 0.00 0.00 0.00 63 1011.0
20260902222808 60 248 2.0 6.0 0.00 0.00 0.00 63 1011.0
20260902222306 59 66 3.0 7.0 0.00 0.00 0.00 64 1010.9
20260902221806 58 315 3.0 8.0 0.00 0.00 0.00 65 1010.9
20260902220806 58 155 3.0 6.0 0.00 0.00 0.00 67 1010.8
20260902220307 57 335 1.0 5.0 0.00 0.00 0.00 68 1011.0
20260902215806 56 339 3.0 7.0 0.00 0.00 0.00 69 1010.8
20260902215307 55 292 1.0 5.0 0.00 0.00 0.00 71 1010.9
20260902214807 53 274 2.0 5.0 0.00 0.00 0.00 75 1010.8
20260902214307 52 105 1.0 3.0 0.00 0.00 0.00 77 1011.0
20260902213806 52 312 1.0 1.0 0.00 0.00 0.00 76 1011.1
20260902213306 52 295 0.0 2.0 0.00 0.00 0.00 75 1010.9
20260902212806 52 317 1.0 2.0 0.00 0.00 0.00 75 1010.7
20260902212308 52 338 1.0 3.0 0.00 0.00 0.00 75 1010.7
20260902211808 52 291 1.0 3.0 0.00 0.00 0.00 75 1010.5
20260902211307 51 312 1.0 3.0 0.00 0.00 0.00 75 1010.5
20260902210807 51 293 1.0 2.0 0.00 0.00 0.00 75 1010.4
20260902210306 51 338 1.0 1.0 0.00 0.00 0.00 74 1010.3
20260902205807 51 338 0.0 2.0 0.00 0.00 0.00 74 1010.0
20260902205307 51 339 1.0 2.0 0.00 0.00 0.00 74 1010.2
20260902204806 51 21 1.0 2.0 0.00 0.00 0.00 73 1009.8
20260902204307 51 358 0.0 3.0 0.00 0.00 0.00 73 1009.9
20260902203807 51 292 2.0 3.0 0.00 0.00 0.00 73 1009.6
20260902203306 51 19 1.0 3.0 0.00 0.00 0.00 73 1009.8
20260902202806 51 324 2.0 6.0 0.00 0.00 0.00 72 1009.5
20260902202307 51 359 1.0 5.0 0.00 0.00 0.00 72 1009.5
20260902201806 51 339 1.0 3.0 0.00 0.00 0.00 72 1009.7
20260902201306 51 274 1.0 2.0 0.00 0.00 0.00 72 1009.7
20260902200807 51 293 1.0 2.0 0.00 0.00 0.00 73 1009.9
20260902200307 51 20 0.0 3.0 0.00 0.00 0.00 73 1009.9
20260902195808 51 337 1.0 3.0 0.00 0.00 0.00 73 1009.8
20260902195307 51 337 1.0 3.0 0.00 0.00 0.00 72 1009.8
20260902194306 52 337 1.0 3.0 0.00 0.00 0.00 71 1010.0
20260902193806 52 22 1.0 3.0 0.00 0.00 0.00 71 1009.8
20260902192807 52 19 1.0 5.0 0.00 0.00 0.00 70 1009.9
20260902192307 52 292 1.0 3.0 0.00 0.00 0.00 70 1009.9
20260902191807 52 356 2.0 3.0 0.00 0.00 0.00 70 1009.8
20260902191307 52 273 1.0 3.0 0.00 0.00 0.00 70 1009.8
20260902190306 52 292 1.0 3.0 0.00 0.00 0.00 70 1009.6
20260902185307 52 294 1.0 5.0 0.00 0.00 0.00 70 1009.4
20260902184808 51 312 1.0 3.0 0.00 0.00 0.00 70 1009.1
20260902183807 51 248 1.0 5.0 0.00 0.00 0.00 71 1009.3
20260902183307 51 249 2.0 5.0 0.00 0.00 0.00 72 1009.2
20260902182806 51 317 2.0 5.0 0.00 0.00 0.00 72 1009.2
20260902182306 50 112 1.0 5.0 0.00 0.00 0.00 73 1009.2
20260902181807 50 276 2.0 5.0 0.00 0.00 0.00 74 1009.2
20260902181306 49 313 1.0 2.0 0.00 0.00 0.00 74 1009.0
20260902180806 50 314 1.0 2.0 0.00 0.00 0.00 74 1009.1
20260902180306 50 269 1.0 3.0 0.00 0.00 0.00 73 1008.9
20260902175807 49 339 1.0 3.0 0.00 0.00 0.00 74 1009.0
20260902175308 49 337 1.0 3.0 0.00 0.00 0.00 75 1009.2
20260902174307 49 275 1.0 3.0 0.00 0.00 0.00 74 1009.1
20260902173307 49 290 1.0 3.0 0.00 0.00 0.00 74 1009.2
20260902172807 49 316 1.0 3.0 0.00 0.00 0.00 75 1009.3
20260902172308 48 338 1.0 3.0 0.00 0.00 0.00 75 1009.4
20260902171306 48 314 1.0 2.0 0.00 0.00 0.00 75 1009.5
20260902170807 48 357 1.0 2.0 0.00 0.00 0.00 76 1009.6
20260902170307 48 227 1.0 2.0 0.00 0.00 0.00 76 1009.9
20260902165807 47 250 1.0 2.0 0.00 0.00 0.00 77 1009.8
20260902165309 47 315 1.0 2.0 0.00 0.00 0.00 78 1009.8
20260902164807 46 357 0.0 1.0 0.00 0.00 0.00 79 1009.9
20260902164306 46 340 0.0 2.0 0.00 0.00 0.00 79 1009.8
20260902163306 46 338 0.0 0.0 0.00 0.00 0.00 78 1010.0
20260902162807 47 338 0.0 0.0 0.00 0.00 0.00 78 1010.1
20260902162307 47 338 0.0 2.0 0.00 0.00 0.00 78 1010.2
20260902161806 47 0 0.0 1.0 0.00 0.00 0.00 78 1010.2
20260902161306 47 338 0.0 1.0 0.00 0.00 0.00 78 1010.5
20260902155807 48 338 1.0 2.0 0.00 0.00 0.00 77 1010.4
20260902155307 47 359 0.0 1.0 0.00 0.00 0.00 77 1010.5
20260902154807 48 340 1.0 2.0 0.00 0.00 0.00 78 1010.5
20260902154306 47 20 1.0 2.0 0.00 0.00 0.00 78 1010.4
20260902153806 47 338 1.0 1.0 0.00 0.00 0.00 79 1010.4
20260902153307 47 338 1.0 3.0 0.00 0.00 0.00 79 1010.5
20260902152806 47 1 1.0 3.0 0.00 0.00 0.00 79 1010.5
20260902152308 47 316 1.0 1.0 0.00 0.00 0.00 80 1010.4
20260902151807 46 338 0.0 1.0 0.00 0.00 0.00 80 1010.7
20260902151308 46 340 1.0 2.0 0.00 0.00 0.00 81 1010.6
20260902150807 46 337 0.0 1.0 0.00 0.00 0.00 81 1010.5
20260902150307 46 271 0.0 1.0 0.00 0.00 0.00 80 1010.7
20260902145806 46 270 0.0 1.0 0.00 0.00 0.00 80 1010.6
20260902145306 46 20 0.0 1.0 0.00 0.00 0.00 80 1010.5
20260902144807 46 293 0.0 1.0 0.00 0.00 0.00 79 1010.7
20260902144306 46 338 1.0 1.0 0.00 0.00 0.00 79 1010.7
20260902143806 46 315 0.0 1.0 0.00 0.00 0.00 78 1010.5
20260902143306 46 359 0.0 2.0 0.00 0.00 0.00 78 1010.5
20260902142806 47 228 0.0 2.0 0.00 0.00 0.00 77 1010.6
20260902142306 47 42 1.0 2.0 0.00 0.00 0.00 77 1010.8
20260902141806 47 338 1.0 2.0 0.00 0.00 0.00 77 1010.9
20260902141308 47 293 1.0 2.0 0.00 0.00 0.00 76 1011.0
20260902140807 47 338 1.0 1.0 0.00 0.00 0.00 76 1011.1
20260902140307 47 338 1.0 2.0 0.00 0.00 0.00 76 1011.0
20260902135807 47 17 1.0 3.0 0.00 0.00 0.00 76 1011.1
20260902135307 47 337 1.0 2.0 0.00 0.00 0.00 76 1011.1
20260902134806 47 336 1.0 1.0 0.00 0.00 0.00 75 1010.9
20260902134307 47 315 0.0 1.0 0.00 0.00 0.00 74 1011.1
20260902133307 48 337 0.0 1.0 0.00 0.00 0.00 73 1011.0
20260902132307 49 338 0.0 1.0 0.00 0.00 0.00 72 1011.2
20260902131807 49 338 0.0 1.0 0.00 0.00 0.00 71 1011.2
20260902130806 50 359 0.0 1.0 0.00 0.00 0.00 70 1011.3
20260902130306 50 315 0.0 1.0 0.00 0.00 0.00 69 1011.4
20260902125806 51 294 1.0 2.0 0.00 0.00 0.00 68 1011.5
20260902125307 51 294 1.0 1.0 0.00 0.00 0.00 68 1011.6
20260902124806 51 316 1.0 2.0 0.00 0.00 0.00 67 1011.6
20260902124306 52 315 1.0 2.0 0.00 0.00 0.00 67 1011.6
20260902123806 52 335 1.0 2.0 0.00 0.00 0.00 66 1011.6
20260902123306 52 271 1.0 2.0 0.00 0.00 0.00 66 1011.7
20260902122807 52 297 1.0 2.0 0.00 0.00 0.00 66 1011.7
20260902122306 52 313 1.0 2.0 0.00 0.00 0.00 65 1011.9
20260902121807 52 249 1.0 3.0 0.00 0.00 0.00 65 1011.9
20260902121307 52 270 1.0 3.0 0.00 0.00 0.00 65 1011.9
20260902120307 53 109 1.0 2.0 0.00 0.00 0.00 65 1012.0
20260902115308 53 335 1.0 2.0 0.00 0.00 0.00 64 1012.1
20260902114806 53 267 1.0 6.0 0.00 0.00 0.00 64 1012.2
20260902114306 53 338 1.0 6.0 0.00 0.00 0.00 64 1012.2
20260902113806 53 293 1.0 3.0 0.00 0.00 0.00 64 1012.2
20260902113306 53 294 1.0 6.0 0.00 0.00 0.00 64 1012.1
20260902112807 54 226 1.0 3.0 0.00 0.00 0.00 63 1012.0
20260902112306 54 315 2.0 3.0 0.00 0.00 0.00 62 1011.6
20260902111806 54 316 1.0 5.0 0.00 0.00 0.00 61 1011.8
20260902111306 54 335 1.0 5.0 0.00 0.00 0.00 61 1012.1
20260902110806 54 111 1.0 3.0 0.00 0.00 0.00 62 1012.1
20260902110306 54 314 1.0 3.0 0.00 0.00 0.00 62 1012.0
20260902105807 55 338 1.0 2.0 0.00 0.00 0.00 63 1012.2
20260902105306 55 339 1.0 3.0 0.00 0.00 0.00 63 1012.3
20260902104806 55 295 2.0 5.0 0.00 0.00 0.00 62 1012.2
20260902104306 56 61 1.0 3.0 0.00 0.00 0.00 62 1012.0
20260902103807 56 336 1.0 5.0 0.00 0.00 0.00 62 1012.2
20260902103307 57 357 2.0 5.0 0.00 0.00 0.00 61 1012.0
20260902102806 57 254 1.0 3.0 0.00 0.00 0.00 61 1011.9
20260902102308 57 314 2.0 3.0 0.00 0.00 0.00 61 1012.2
20260902101806 57 290 1.0 2.0 0.00 0.00 0.00 62 1012.1
20260902101306 58 295 1.0 2.0 0.00 0.00 0.00 62 1012.0
20260902100808 58 295 1.0 3.0 0.00 0.00 0.00 62 1012.0
20260902100306 58 232 1.0 2.0 0.00 0.00 0.00 61 1012.1
20260902095807 58 313 1.0 5.0 0.00 0.00 0.00 61 1012.1
20260902095307 58 313 2.0 3.0 0.00 0.00 0.00 62 1012.1
20260902094807 58 21 1.0 2.0 0.00 0.00 0.00 64 1011.9
20260902094306 57 292 0.0 5.0 0.00 0.00 0.00 66 1011.9
20260902093807 57 22 0.0 2.0 0.00 0.00 0.00 68 1012.1
20260902093306 57 22 1.0 1.0 0.00 0.00 0.00 68 1011.9
20260902092807 57 22 0.0 1.0 0.00 0.00 0.00 69 1011.8
20260902092307 56 45 0.0 1.0 0.00 0.00 0.00 70 1011.9
20260902091807 56 45 1.0 1.0 0.00 0.00 0.00 71 1011.7
20260902090807 56 90 0.0 0.0 0.00 0.00 0.00 71 1011.6
20260902090306 56 90 0.0 0.0 0.00 0.00 0.00 71 1011.7
20260902085806 56 90 0.0 1.0 0.00 0.00 0.00 71 1011.6
20260902085306 56 90 0.0 0.0 0.00 0.00 0.00 70 1011.4
20260902084806 56 90 0.0 1.0 0.00 0.00 0.00 70 1011.6
20260902083806 57 90 0.0 1.0 0.00 0.00 0.00 69 1011.4
20260902083307 57 112 0.0 1.0 0.00 0.00 0.00 69 1011.3
20260902082806 57 68 0.0 1.0 0.00 0.00 0.00 68 1011.2
20260902082309 57 90 1.0 3.0 0.00 0.00 0.00 68 1011.2
20260902081807 57 110 1.0 2.0 0.00 0.00 0.00 67 1011.3
20260902081309 58 89 0.0 1.0 0.00 0.00 0.00 67 1011.3
20260902080806 58 112 1.0 3.0 0.00 0.00 0.00 66 1011.3
20260902080307 58 45 2.0 3.0 0.00 0.00 0.00 65 1011.4
20260902075808 59 46 1.0 5.0 0.00 0.00 0.00 65 1011.2
20260902075306 59 87 3.0 5.0 0.00 0.00 0.00 64 1011.2
20260902074807 60 25 1.0 3.0 0.00 0.00 0.00 61 1011.1
20260902074307 60 71 1.0 2.0 0.00 0.00 0.00 59 1011.1
20260902073807 60 179 1.0 3.0 0.00 0.00 0.00 59 1011.1
20260902073307 61 159 1.0 3.0 0.00 0.00 0.00 58 1010.9
20260902072808 61 113 1.0 2.0 0.00 0.00 0.00 57 1010.9
20260902072309 61 247 1.0 3.0 0.00 0.00 0.00 56 1010.9
20260902071806 61 290 1.0 3.0 0.00 0.00 0.00 55 1010.8
20260902071308 61 180 1.0 3.0 0.00 0.00 0.00 55 1010.8
20260902070307 62 269 2.0 5.0 0.00 0.00 0.00 55 1011.0
20260902065808 62 249 2.0 5.0 0.00 0.00 0.00 54 1011.0
20260902065307 62 249 3.0 5.0 0.00 0.00 0.00 54 1011.1
20260902064806 63 207 2.0 5.0 0.00 0.00 0.00 54 1010.9
20260902064307 63 250 1.0 6.0 0.00 0.00 0.00 52 1011.0
20260902063806 64 271 2.0 5.0 0.00 0.00 0.00 50 1011.1
20260902063309 64 294 3.0 6.0 0.00 0.00 0.00 50 1011.1
20260902062806 64 292 1.0 5.0 0.00 0.00 0.00 50 1011.1
20260902062306 64 251 3.0 6.0 0.00 0.00 0.00 49 1011.3
20260902061807 64 338 1.0 5.0 0.00 0.00 0.00 50 1011.3
20260902060806 64 222 3.0 7.0 0.00 0.00 0.00 49 1011.4
20260902060306 64 245 1.0 6.0 0.00 0.00 0.00 50 1011.6
20260902055307 64 251 3.0 6.0 0.00 0.00 0.00 51 1011.5
20260902054806 64 0 2.0 8.0 0.00 0.00 0.00 50 1011.6
20260902053807 65 203 3.0 7.0 0.00 0.00 0.00 49 1011.9
20260902053307 65 293 1.0 5.0 0.00 0.00 0.00 49 1012.0
20260902052807 65 291 2.0 5.0 0.00 0.00 0.00 50 1012.1
20260902051807 64 250 1.0 3.0 0.00 0.00 0.00 50 1012.1
20260902051307 65 180 2.0 8.0 0.00 0.00 0.00 49 1012.1
20260902050808 65 292 3.0 8.0 0.00 0.00 0.00 49 1012.2
20260902045806 65 314 2.0 5.0 0.00 0.00 0.00 49 1012.1
20260902044807 64 202 3.0 7.0 0.00 0.00 0.00 50 1012.2
20260902044306 64 249 3.0 6.0 0.00 0.00 0.00 50 1012.3
20260902043806 64 226 1.0 5.0 0.00 0.00 0.00 51 1012.4
20260902043306 64 271 2.0 5.0 0.00 0.00 0.00 51 1012.4
20260902042807 65 338 1.0 5.0 0.00 0.00 0.00 50 1012.2
20260902042309 64 309 2.0 6.0 0.00 0.00 0.00 51 1012.3
20260902041806 63 269 1.0 5.0 0.00 0.00 0.00 53 1012.3
20260902041307 63 226 2.0 5.0 0.00 0.00 0.00 54 1012.3
20260902040307 63 246 1.0 3.0 0.00 0.00 0.00 54 1012.7
20260902035807 63 253 3.0 7.0 0.00 0.00 0.00 54 1012.5
20260902035307 63 268 2.0 6.0 0.00 0.00 0.00 52 1012.4
20260902034807 63 355 1.0 5.0 0.00 0.00 0.00 53 1012.5
20260902034307 63 181 1.0 5.0 0.00 0.00 0.00 54 1012.8